Location: Vale
(35.4830°N, 81.3830°W)
Time: 22:20:36
(UTC-04:00)

Amateur Radio Satellites - All Passes

Search period start: 02 September 2014 21:50
Search period end: 03 September 2014 21:50
Location: Vale, 35.4830°N, 81.3830°W

Satellite Date Start Highest point End Downlink Frequencies (MHz)
Time Altitude Azimuth
HO-68 02 Sep 22:16:53 22:23:46 52° 259° (W) 22:30:43 435.675 MHz FM
UKube-1 02 Sep 22:27:12 22:31:27 56° 259° (W) 22:35:43 145.840 MHz, 145.915 MHz
Oscar 11 02 Sep 22:29:42 22:34:02 88° 258° (WSW) 22:38:25 145.825 FM, Beacon 2401.500 USB
MaSat-1 02 Sep 22:51:16 22:55:36 60° 64° (ENE) 22:59:17 437.345 MHz
Saudisat 1A 02 Sep 22:54:57 22:59:08 43° 304° (NW) 23:03:21 436.775 MHz
FUNcube-1 02 Sep 23:04:38 23:08:49 85° 77° (ENE) 23:13:06 145.950 - 145.970 MHz USB
KITSAT 1 02 Sep 23:40:15 23:48:22 87° 297° (WNW) 23:56:30 435.175 FM
Sapphire 03 Sep 01:38:29 01:43:15 30° 55° (NE) 01:47:59 437.095 MHz 1200 baud AX-25 AFSK
KITSAT 1 03 Sep 01:39:14 01:44:53 20° 318° (NW) 01:50:34 435.175 FM
PCSat 03 Sep 02:07:12 02:12:34 58° 61° (ENE) 02:17:52 145.825 MHz
Oscar 19 03 Sep 02:09:49 02:14:00 24° 95° (E) 02:18:09 437.125 CW, 437.150 USB
SO-50 03 Sep 02:10:40 02:12:36 13° 107° (ESE) 02:14:32 436.795 FM
Oscar 10/S400 03 Sep 02:32:53 03:43:30 51° 224° (SW) 10:21:28 145.825 - 145.975 CW/USB, Beacon 145.810 USB
Oscar 16 03 Sep 02:44:35 02:49:43 58° 101° (E) 02:54:48 437.025 USB, Beacon 2401.1428
ITAMSAT 1 03 Sep 02:49:57 02:54:12 25° 96° (E) 02:58:26 435.822 SSB
Uribyol 2 03 Sep 02:58:41 03:03:21 33° 98° (E) 03:08:00 436.500 FM
TMSAT-1 03 Sep 03:18:25 03:21:22 15° 92° (E) 03:24:19 436.925 FM
AO-27 03 Sep 03:19:19 03:24:23 51° 100° (E) 03:29:25 436.795 MHz FM
Sapphire 03 Sep 03:21:49 03:26:37 33° 251° (WSW) 03:31:23 437.095 MHz 1200 baud AX-25 AFSK
OPAL 03 Sep 03:43:00 03:45:06 13° 60° (ENE) 03:47:13 ?
AO-Echo 03 Sep 03:47:57 03:52:37 69° 285° (WNW) 03:57:21 ?
SO-50 03 Sep 03:48:15 03:52:36 54° 302° (WNW) 03:57:05 436.795 FM
Oscar 19 03 Sep 03:48:41 03:53:20 34° 290° (WNW) 03:57:58 437.125 CW, 437.150 USB
UOSAT-12 03 Sep 03:52:01 03:52:49 10° 106° (ESE) 03:53:38 437.025 FM, 437.400 FM
PCSat 03 Sep 03:52:14 03:55:25 16° 256° (WSW) 03:58:36 145.825 MHz
JAS-1B 03 Sep 03:52:41 03:59:07 87° 104° (ESE) 04:04:51 435.800 - 435.900 CW/SSB
Gurwin Techsat 1B 03 Sep 04:07:06 04:12:24 67° 102° (ESE) 04:17:39 435.225 FM
Oscar 16 03 Sep 04:25:34 04:28:32 16° 296° (WNW) 04:31:30 437.025 USB, Beacon 2401.1428
ITAMSAT 1 03 Sep 04:29:04 04:33:40 33° 290° (WNW) 04:38:17 435.822 SSB
AO-7 03 Sep 04:36:08 04:42:27 24° 95° (E) 04:48:43 29.400 - 29.500 MHz
Uribyol 2 03 Sep 04:38:24 04:42:38 26° 292° (WNW) 04:46:52 436.500 FM
Uosat F 03 Sep 04:42:50 04:46:03 17° 94° (E) 04:49:15 435.120 FM
TMSAT-1 03 Sep 04:56:25 05:01:36 56° 287° (WNW) 05:06:45 436.925 FM
AO-27 03 Sep 05:00:08 05:03:26 17° 295° (WNW) 05:06:44 436.795 MHz FM
OPAL 03 Sep 05:18:15 05:23:18 73° 256° (WSW) 05:28:27 ?
UOSAT-12 03 Sep 05:27:44 05:32:18 69° 301° (WNW) 05:37:00 437.025 FM, 437.400 FM
JAS-1B 03 Sep 05:46:34 05:48:34 12° 305° (NW) 05:50:31 435.800 - 435.900 CW/SSB
Gurwin Techsat 1B 03 Sep 05:49:07 05:51:44 14° 297° (WNW) 05:54:22 435.225 FM
Uosat F 03 Sep 06:20:15 06:25:01 46° 288° (WNW) 06:29:46 435.120 FM
AO-7 03 Sep 06:27:31 06:35:41 66° 291° (WNW) 06:43:49 29.400 - 29.500 MHz
Hamsat 03 Sep 06:39:30 06:43:09 26° 96° (E) 06:46:45 145.90 MHz
RS-15 03 Sep 06:47:03 06:57:01 40° 107° (ESE) 07:06:45 29.354 - 29.394 USB, Beacon 29.352 USB
STRAND 1 03 Sep 07:08:12 07:13:09 54° 73° (ENE) 07:18:07 ?
JAS-2 03 Sep 07:19:49 07:25:12 70° 102° (ESE) 07:31:08 435.800 - 435.900 CW/SSB, 435.910 FM
Saudisat 1A 03 Sep 07:24:14 07:28:37 61° 58° (ENE) 07:32:57 436.775 MHz
KITSAT 1 03 Sep 07:37:32 07:44:19 29° 48° (NE) 07:51:03 435.175 FM
SO-67 03 Sep 08:08:51 08:12:04 36° 98° (E) 08:15:17 435.3500 MHz FM
Hamsat 03 Sep 08:15:36 08:18:57 22° 290° (WNW) 08:22:16 145.90 MHz
AO-7 03 Sep 08:23:57 08:26:52 12° 310° (NW) 08:29:49 29.400 - 29.500 MHz
STRAND 1 03 Sep 08:49:50 08:52:37 15° 267° (W) 08:55:24 ?
ISS 03 Sep 08:57:48 09:00:50 34° 132° (SE) 09:03:52 145.800 FM
RS-15 03 Sep 08:58:12 09:08:56 54° 307° (NW) 09:19:35 29.354 - 29.394 USB, Beacon 29.352 USB
Saudisat 1A 03 Sep 09:06:28 09:07:38 11° 253° (WSW) 09:08:47 436.775 MHz
JAS-2 03 Sep 09:07:21 09:09:50 13° 296° (WNW) 09:12:23 435.800 - 435.900 CW/SSB, 435.910 FM
PANSAT 03 Sep 09:27:31 09:27:47 10° 158° (SSE) 09:28:03 not established
KITSAT 1 03 Sep 09:32:16 09:40:13 64° 247° (WSW) 09:48:07 435.175 FM
SO-67 03 Sep 09:44:32 09:44:43 10° 292° (WNW) 09:44:54 435.3500 MHz FM
HO-68 03 Sep 09:47:55 09:54:26 37° 98° (E) 10:00:54 435.675 MHz FM
UKube-1 03 Sep 10:18:44 10:22:33 30° 98° (E) 10:26:22 145.840 MHz, 145.915 MHz
Oscar 11 03 Sep 10:21:13 10:24:32 21° 95° (E) 10:27:50 145.825 FM, Beacon 2401.500 USB
ISS 03 Sep 10:34:55 10:37:36 22° 328° (NNW) 10:40:18 145.800 FM
FUNcube-1 03 Sep 10:57:16 11:00:50 22° 95° (E) 11:04:23 145.950 - 145.970 MHz USB
PANSAT 03 Sep 11:04:15 11:07:21 23° 170° (S) 11:10:28 not established
RS-15 03 Sep 11:18:15 11:24:38 17° 336° (NNW) 11:31:03 29.354 - 29.394 USB, Beacon 29.352 USB
HO-68 03 Sep 11:35:35 11:42:02 38° 294° (WNW) 11:48:29 435.675 MHz FM
UKube-1 03 Sep 11:55:21 11:58:32 20° 292° (WNW) 12:01:44 145.840 MHz, 145.915 MHz
Oscar 11 03 Sep 11:56:56 12:00:41 28° 289° (WNW) 12:04:24 145.825 FM, Beacon 2401.500 USB
SO-50 03 Sep 12:22:27 12:27:12 57° 58° (ENE) 12:31:58 436.795 FM
FUNcube-1 03 Sep 12:33:10 12:37:11 31° 289° (WNW) 12:41:12 145.950 - 145.970 MHz USB
MaSat-1 03 Sep 12:34:54 12:39:34 50° 108° (ESE) 12:44:31 437.345 MHz
PANSAT 03 Sep 12:43:45 12:47:06 28° 182° (S) 12:50:27 not established
JAS-1B 03 Sep 12:47:16 12:50:38 13° 56° (NE) 12:53:53 435.800 - 435.900 CW/SSB
AO-Echo 03 Sep 13:23:23 13:24:32 11° 64° (ENE) 13:25:41 ?
Oscar 19 03 Sep 13:23:53 13:28:08 27° 68° (ENE) 13:32:25 437.125 CW, 437.150 USB
RS-15 03 Sep 13:39:02 13:43:54 13° 15° (NNE) 13:48:48 29.354 - 29.394 USB, Beacon 29.352 USB
Oscar 16 03 Sep 13:58:29 14:03:34 61° 74° (ENE) 14:08:41 437.025 USB, Beacon 2401.1428
UOSAT-12 03 Sep 14:00:21 14:04:52 43° 56° (NE) 14:09:18 437.025 FM, 437.400 FM
SO-50 03 Sep 14:04:45 14:07:17 14° 252° (WSW) 14:09:49 436.795 FM
ITAMSAT 1 03 Sep 14:05:11 14:09:33 29° 69° (ENE) 14:13:56 435.822 SSB
MaSat-1 03 Sep 14:13:18 14:16:52 19° 305° (NW) 14:20:32 437.345 MHz
Uribyol 2 03 Sep 14:13:43 14:18:24 37° 70° (ENE) 14:23:07 436.500 FM
PANSAT 03 Sep 14:24:05 14:26:48 18° 195° (SSW) 14:29:31 not established
JAS-1B 03 Sep 14:30:11 14:39:45 63° 72° (ENE) 14:48:17 435.800 - 435.900 CW/SSB
AO-27 03 Sep 14:34:30 14:39:33 58° 73° (ENE) 14:44:38 436.795 MHz FM
TMSAT-1 03 Sep 14:36:18 14:39:52 19° 65° (ENE) 14:43:26 436.925 FM
AO-Echo 03 Sep 14:57:41 15:02:42 75° 258° (WSW) 15:07:35 ?
Oscar 19 03 Sep 15:02:45 15:07:18 32° 263° (W) 15:11:55 437.125 CW, 437.150 USB
PCSat 03 Sep 15:07:36 15:08:25 10° 102° (ESE) 15:09:14 145.825 MHz
Gurwin Techsat 1B 03 Sep 15:25:09 15:30:26 78° 75° (ENE) 15:35:45 435.225 FM
ISS 03 Sep 15:29:32 15:31:40 16° 28° (NNE) 15:33:47 145.800 FM
AO-7 03 Sep 15:32:16 15:38:51 27° 59° (ENE) 15:45:25 29.400 - 29.500 MHz
Oscar 16 03 Sep 15:40:55 15:43:17 13° 268° (W) 15:45:39 437.025 USB, Beacon 2401.1428
UOSAT-12 03 Sep 15:41:31 15:44:38 18° 251° (WSW) 15:47:43 437.025 FM, 437.400 FM
ITAMSAT 1 03 Sep 15:44:30 15:48:56 29° 263° (W) 15:53:24 435.822 SSB
RS-15 03 Sep 15:50:44 16:00:51 38° 47° (NE) 16:11:15 29.354 - 29.394 USB, Beacon 29.352 USB
Uosat F 03 Sep 15:53:33 15:56:54 18° 66° (ENE) 16:00:15 435.120 FM
Uribyol 2 03 Sep 15:53:59 15:57:56 22° 265° (W) 16:01:54 436.500 FM
TMSAT-1 03 Sep 16:14:16 16:19:21 49° 260° (W) 16:24:29 436.925 FM
AO-27 03 Sep 16:16:43 16:19:23 14° 268° (W) 16:22:03 436.795 MHz FM
Sapphire 03 Sep 16:16:53 16:22:04 50° 111° (ESE) 16:27:17 437.095 MHz 1200 baud AX-25 AFSK
JAS-1B 03 Sep 16:22:14 16:30:22 30° 265° (W) 16:37:55 435.800 - 435.900 CW/SSB
PCSat 03 Sep 16:45:38 16:51:02 82° 296° (WNW) 16:56:29 145.825 MHz
ISS 03 Sep 17:05:22 17:08:40 63° 224° (SW) 17:11:57 145.800 FM
Gurwin Techsat 1B 03 Sep 17:10:10 17:10:54 10° 270° (W) 17:11:38 435.225 FM
AO-7 03 Sep 17:22:45 17:30:59 64° 256° (WSW) 17:39:15 29.400 - 29.500 MHz
Uosat F 03 Sep 17:30:32 17:35:18 45° 260° (W) 17:40:06 435.120 FM
JAS-2 03 Sep 17:30:53 17:35:03 20° 67° (ENE) 17:38:58 435.800 - 435.900 CW/SSB, 435.910 FM
Hamsat 03 Sep 17:31:15 17:33:31 14° 67° (ENE) 17:35:48 145.90 MHz
OPAL 03 Sep 17:31:24 17:36:16 39° 100° (E) 17:41:04 ?
Sapphire 03 Sep 18:01:41 18:05:44 21° 308° (NW) 18:09:50 437.095 MHz 1200 baud AX-25 AFSK
RS-15 03 Sep 18:02:49 18:13:42 61° 248° (WSW) 18:25:03 29.354 - 29.394 USB, Beacon 29.352 USB
PCSat 03 Sep 18:33:23 18:35:17 12° 315° (NW) 18:37:12 145.825 MHz
Hamsat 03 Sep 19:04:56 19:09:03 44° 261° (W) 19:13:14 145.90 MHz
OPAL 03 Sep 19:10:49 19:14:52 23° 295° (WNW) 19:18:52 ?
JAS-2 03 Sep 19:14:00 19:19:53 48° 260° (W) 19:25:12 435.800 - 435.900 CW/SSB, 435.910 FM
STRAND 1 03 Sep 19:22:32 19:26:34 23° 96° (E) 19:30:35 ?
SO-67 03 Sep 20:11:29 20:14:49 45° 261° (W) 20:18:10 435.3500 MHz FM
HO-68 03 Sep 20:14:51 20:19:50 21° 60° (ENE) 20:24:49 435.675 MHz FM
STRAND 1 03 Sep 21:01:10 21:05:46 35° 290° (WNW) 21:10:22 ?
UKube-1 03 Sep 21:12:09 21:15:11 19° 68° (ENE) 21:18:12 145.840 MHz, 145.915 MHz
Oscar 11 03 Sep 21:15:06 21:16:50 12° 65° (ENE) 21:18:33 145.825 FM, Beacon 2401.500 USB
Saudisat 1A 03 Sep 21:28:09 21:32:03 32° 113° (ESE) 21:35:59 436.775 MHz
